Weather History for Baker, OR

Change the Weather History Date:

Thursday, November 17, 2011

  Actual Average Record
Temperature  
Mean Temperature 34 °F 32 °F  
Max Temperature 39 °F 43 °F 59 °F (1976)
Min Temperature 28 °F 22 °F -3 °F (2014)
Degree Days  
Heating Degree Days 31 33  
Month to date heating degree days 585 500  
Since 1 July heating degree days 1470 1579  
Cooling Degree Days 0 0  
Month to date cooling degree days 0 0  
Year to date cooling degree days 83 169  
Moisture  
Dew Point 31 °F    
Average Humidity 82    
Maximum Humidity 100    
Minimum Humidity 64    
Precipitation  
Precipitation 0.14 in 0.03 in 0.44 in (1979)
Month to date precipitation 0.58 0.49  
Year to date precipitation 10.57 8.74  
Sea Level Pressure  
Sea Level Pressure 29.80 in    
Wind  
Wind Speed 6 mph (SSE)    
Max Wind Speed 24 mph    
Max Gust Speed 30 mph    
Visibility 8 miles    
Events Rain , Snow    
T = Trace of Precipitation, MM = Missing Value Source: NWS Daily Summary

Daily Weather History Graph

Daily Weather History Graph

Search for Another Location

Airport:

Trip Planner

Search our weather history database for the weather conditions in past years. The results will help you decide how hot, cold, wet, or windy it might be!

Date:

Astronomy

Nov. 17, 2011 Rise Set
Actual Time 6:50 AM PST 4:20 PM PST
Civil Twilight 6:19 AM PST 4:52 PM PST
Nautical Twilight 5:43 AM PST 5:28 PM PST
Astronomical Twilight 5:08 AM PST 6:03 PM PST
Moon 10:52 PM PST (11/17) 11:57 AM PST (11/17)
Length of Visible Light 10h 33m
Length of Day
9h 30m
Waning Gibbous, 59% of the Moon is Illuminated
Nov 17
Waning Gibbous
Nov 18
Last Quarter
Nov 24
New
Dec 2
First Quarter
Dec 10
Full

Hourly Weather History & Observations

Time (PST) Temp. Windchill Dew Point Humidity Pressure Visibility Wind Dir Wind Speed Gust Speed Precip Events Conditions
12:53 AM 35.1 °F 26.9 °F 24.1 °F 64% 29.99 in 10.0 mi ESE 11.5 mph 21.9 mph 0.00 in   Overcast
1:53 AM 35.1 °F 26.4 °F 24.1 °F 64% 29.96 in 10.0 mi East 12.7 mph 21.9 mph N/A   Overcast
2:53 AM 35.1 °F 24.1 °F 25.0 °F 67% 29.94 in 10.0 mi East 19.6 mph 26.5 mph 0.00 in   Overcast
3:53 AM 34.0 °F 22.4 °F 28.9 °F 82% 29.91 in 10.0 mi East 20.7 mph 27.6 mph 0.01 in Rain Light Rain
4:53 AM 34.0 °F 26.0 °F 28.9 °F 82% 29.88 in 10.0 mi ESE 10.4 mph 24.2 mph 0.01 in Rain Light Rain
5:53 AM 35.1 °F 26.4 °F 30.9 °F 85% 29.85 in 10.0 mi ESE 12.7 mph 23.0 mph 0.01 in Rain Light Rain
6:53 AM 33.1 °F 26.9 °F 30.9 °F 92% 29.88 in 7.0 mi WSW 6.9 mph - 0.01 in Rain Light Rain
7:53 AM 33.1 °F - 32.0 °F 96% 29.89 in 2.5 mi Calm Calm - 0.04 in Rain Light Rain
8:18 AM 33.8 °F - 32.0 °F 93% 29.82 in 3.0 mi Calm Calm - 0.02 in Rain Light Rain
8:53 AM 33.8 °F 29.6 °F 33.8 °F 100% 29.83 in 5.0 mi West 4.6 mph - N/A   Overcast
9:01 AM 35.6 °F 29.9 °F 33.8 °F 93% 29.83 in 6.0 mi NW 6.9 mph - N/A   Overcast
9:08 AM 35.6 °F 31.7 °F 33.8 °F 93% 29.83 in 7.0 mi NNW 4.6 mph - N/A   Overcast
9:46 AM 35.6 °F - 33.8 °F 93% 29.84 in 10.0 mi Calm Calm - N/A   Overcast
9:53 AM 35.1 °F - 33.1 °F 92% 29.89 in 7.0 mi Calm Calm - 0.00 in Rain Light Rain
10:13 AM 35.6 °F 31.7 °F 33.8 °F 93% 29.83 in 7.0 mi WNW 4.6 mph - 0.01 in Rain Light Rain
10:53 AM 36.0 °F 33.3 °F 34.0 °F 93% 29.89 in 10.0 mi SW 3.5 mph - 0.01 in Rain Light Rain
11:29 AM 35.6 °F 32.8 °F 33.8 °F 93% 29.83 in 10.0 mi South 3.5 mph - 0.00 in Rain Light Rain
11:51 AM 35.6 °F - 33.8 °F 93% 29.81 in 10.0 mi Calm Calm - 0.00 in   Overcast
11:53 AM 36.0 °F - 34.0 °F 93% 29.86 in 10.0 mi Calm Calm - 0.00 in   Overcast
12:13 PM 37.4 °F - 33.8 °F 87% 29.80 in 10.0 mi Calm Calm - N/A   Overcast
12:32 PM 37.4 °F 33.8 °F 35.6 °F 93% 29.80 in 10.0 mi West 4.6 mph - N/A   Overcast
12:53 PM 37.0 °F 33.3 °F 34.0 °F 89% 29.84 in 9.0 mi West 4.6 mph - N/A   Overcast
1:17 PM 37.4 °F 32.8 °F 33.8 °F 87% 29.79 in 10.0 mi North 5.8 mph - N/A   Overcast
1:22 PM 37.4 °F 32.1 °F 33.8 °F 87% 29.79 in 10.0 mi NNE 6.9 mph - N/A   Overcast
1:53 PM 37.9 °F 34.4 °F 33.1 °F 83% 29.83 in 10.0 mi NNW 4.6 mph - 0.00 in Rain Light Rain
2:53 PM 37.0 °F - 33.1 °F 86% 29.81 in 10.0 mi Calm Calm - 0.00 in   Overcast
3:53 PM 35.1 °F 31.0 °F 33.1 °F 92% 29.81 in 10.0 mi WSW 4.6 mph - N/A   Overcast
4:39 PM 33.8 °F - 32.0 °F 93% 29.75 in 10.0 mi Calm Calm - 0.00 in   Overcast
4:53 PM 34.0 °F 31.0 °F 32.0 °F 92% 29.81 in 10.0 mi SW 3.5 mph - 0.00 in   Overcast
5:11 PM 33.8 °F 27.7 °F 32.0 °F 93% 29.75 in 10.0 mi West 6.9 mph - 0.00 in   Overcast
5:48 PM 33.8 °F 29.6 °F 30.2 °F 87% 29.74 in 9.0 mi WSW 4.6 mph - 0.00 in Snow Light Snow
5:53 PM 33.1 °F 28.7 °F 30.9 °F 92% 29.79 in 8.0 mi SW 4.6 mph - 0.00 in Snow Light Snow
6:53 PM 32.0 °F - 30.9 °F 96% 29.78 in 5.0 mi Calm Calm - 0.01 in Snow Light Snow
7:02 PM 32.0 °F 28.7 °F 30.2 °F 93% 29.72 in 6.0 mi SSE 3.5 mph - 0.00 in   Overcast
7:11 PM 32.0 °F 28.7 °F 30.2 °F 93% 29.73 in 4.0 mi SSE 3.5 mph - 0.01 in Snow Light Snow
7:22 PM 32.0 °F 27.5 °F 30.2 °F 93% 29.72 in 2.5 mi SSE 4.6 mph - 0.01 in Snow Light Snow
7:30 PM 32.0 °F 28.7 °F 30.2 °F 93% 29.72 in 4.0 mi SSW 3.5 mph - 0.01 in Snow Light Snow
7:41 PM 32.0 °F 28.7 °F 30.2 °F 93% 29.71 in 2.0 mi SE 3.5 mph - 0.01 in Snow Light Snow
7:51 PM 32.0 °F - 30.2 °F 93% 29.71 in 4.0 mi Calm Calm - 0.02 in Snow Light Snow
7:53 PM 32.0 °F 27.5 °F 30.9 °F 96% 29.77 in 4.0 mi SSE 4.6 mph - 0.02 in Snow Light Snow
8:49 PM 30.2 °F 25.4 °F 30.2 °F 100% 29.69 in 7.0 mi Variable 4.6 mph - 0.00 in   Scattered Clouds
8:53 PM 32.0 °F 24.2 °F 30.0 °F 92% 29.74 in 7.0 mi East 9.2 mph - 0.00 in   Scattered Clouds
9:36 PM 32.0 °F 28.7 °F 30.2 °F 93% 29.68 in 2.0 mi East 3.5 mph - 0.00 in Snow Light Snow
9:49 PM 32.0 °F 26.4 °F 30.2 °F 93% 29.67 in 7.0 mi East 5.8 mph - 0.00 in Snow Light Snow
9:53 PM 30.9 °F 26.2 °F 30.0 °F 96% 29.72 in 9.0 mi East 4.6 mph - 0.00 in   Mostly Cloudy
10:53 PM 28.0 °F 21.7 °F 26.1 °F 92% 29.71 in 10.0 mi East 5.8 mph - N/A   Partly Cloudy
11:53 PM 30.0 °F 24.1 °F 26.1 °F 85% 29.68 in 10.0 mi SSE 5.8 mph - N/A   Scattered Clouds